Weather History for Galax, VA

Change the Weather History Date:

Wednesday, November 6, 2013

  Actual Average (KBLF) Record (KBLF)
Temperature  
Mean Temperature 57 °F 51 °F  
Max Temperature 66 °F 60 °F 74 °F (1975)
Min Temperature 48 °F 42 °F 19 °F (1967)
Degree Days  
Heating Degree Days 8 15  
Month to date heating degree days 83  
Since 1 July heating degree days 447  
Cooling Degree Days 0 0  
Month to date cooling degree days 0  
Year to date cooling degree days 851  
Growing Degree Days 7 (Base 50)    
Moisture  
Dew Point 51 °F    
Average Humidity 85    
Maximum Humidity 100    
Minimum Humidity 60    
Precipitation  
Precipitation 0.01 in 0.08 in 0.66 in (2003)
Month to date precipitation 0.53  
Year to date precipitation 34.56  
Snow  
Snow 0.00 in - - ()
Month to date snowfall  
Since 1 July snowfall  
Since 1 September snowfall  
Snow Depth -    
Sea Level Pressure  
Sea Level Pressure 30.32 in    
Wind  
Wind Speed 5 mph (South)    
Max Wind Speed 10 mph    
Max Gust Speed 17 mph    
Visibility 7 miles    
Events Fog    
T = Trace of Precipitation, MM = Missing Value Source: NWS Daily Summary

Daily Weather History Graph

Daily Weather History Graph

Search for Another Location

Airport:

Trip Planner

Search our weather history database for the weather conditions in past years. The results will help you decide how hot, cold, wet, or windy it might be!

Date:

Astronomy

Nov. 06, 2013 Rise Set
Actual Time 6:52 AM EST 5:21 PM EST
Civil Twilight 6:25 AM EST 5:48 PM EST
Nautical Twilight 5:54 AM EST 6:18 PM EST
Astronomical Twilight 5:24 AM EST 6:49 PM EST
Moon 10:03 AM EST (11/6) 8:25 PM EST (11/6)
Length of Visible Light 11h 22m
Length of Day
10h 28m
Waxing Crescent, 13% of the Moon is Illuminated
Nov 6
Waxing Crescent
Nov 10
First Quarter
Nov 17
Full
Nov 25
Last Quarter
Dec 2
New

Hourly Weather History & Observations

Time (EST) Temp. Dew Point Humidity Pressure Visibility Wind Dir Wind Speed Gust Speed Precip Events Conditions
12:15 AM 48.2 °F 48.2 °F 100% 30.44 in 2.5 mi South 3.5 mph - N/A   Overcast
12:35 AM 48.2 °F 48.2 °F 100% 30.44 in 3.0 mi South 3.5 mph - 0.01 in   Overcast
12:55 AM 50.0 °F 48.2 °F 94% 30.44 in 3.0 mi Calm Calm - N/A   Overcast
1:35 AM 51.8 °F 50.0 °F 94% 30.43 in 0.8 mi Calm Calm - N/A   Overcast
1:55 AM 51.8 °F 50.0 °F 94% 30.43 in 1.0 mi SSE 3.5 mph - N/A   Overcast
2:15 AM 51.8 °F 50.0 °F 94% 30.42 in 1.2 mi Calm Calm - N/A   Overcast
2:35 AM 51.8 °F 50.0 °F 94% 30.42 in 1.0 mi South 4.6 mph - N/A   Overcast
2:55 AM 51.8 °F 50.0 °F 94% 30.41 in 1.2 mi South 5.8 mph - N/A   Overcast
3:15 AM 51.8 °F 50.0 °F 94% 30.41 in 0.2 mi South 3.5 mph - N/A Fog Fog
3:35 AM 50.0 °F 48.2 °F 94% 30.41 in 0.2 mi SSE 4.6 mph - N/A Fog Fog
3:55 AM 50.0 °F 48.2 °F 94% 30.40 in 0.2 mi Calm Calm - N/A Fog Fog
4:15 AM 50.0 °F 48.2 °F 94% 30.40 in 0.2 mi Calm Calm - N/A Fog Fog
4:35 AM 50.0 °F 48.2 °F 94% 30.40 in 0.2 mi South 3.5 mph - 0.01 in Fog Fog
4:55 AM 50.0 °F 48.2 °F 94% 30.40 in 0.2 mi Calm Calm - N/A Fog Fog
5:15 AM 50.0 °F 50.0 °F 100% 30.39 in 0.2 mi Calm Calm - N/A Fog Fog
5:35 AM 50.0 °F 50.0 °F 100% 30.39 in 0.2 mi Calm Calm - N/A Fog Fog
5:55 AM 50.0 °F 50.0 °F 100% 30.39 in 0.2 mi Calm Calm - N/A Fog Fog
6:15 AM 51.8 °F 50.0 °F 94% 30.39 in 0.2 mi Calm Calm - N/A Fog Fog
6:35 AM 51.8 °F 50.0 °F 94% 30.38 in 0.2 mi Calm Calm - N/A Fog Fog
6:55 AM 51.8 °F 50.0 °F 94% 30.38 in 0.5 mi SSE 4.6 mph - N/A Fog Fog
7:15 AM 51.8 °F 50.0 °F 94% 30.38 in 0.8 mi SSE 3.5 mph - N/A   Overcast
7:35 AM 51.8 °F 50.0 °F 94% 30.39 in 1.0 mi South 6.9 mph - N/A   Overcast
7:55 AM 51.8 °F 50.0 °F 94% 30.39 in 4.0 mi South 4.6 mph - N/A   Overcast
8:15 AM 51.8 °F 50.0 °F 94% 30.39 in 7.0 mi South 5.8 mph - N/A   Mostly Cloudy
8:35 AM 51.8 °F 50.0 °F 94% 30.40 in 10.0 mi SSW 5.8 mph - N/A   Scattered Clouds
8:55 AM 51.8 °F 50.0 °F 94% 30.39 in 10.0 mi South 4.6 mph - N/A   Clear
9:15 AM 51.8 °F 51.8 °F 100% 30.39 in 10.0 mi SSE 6.9 mph - N/A   Scattered Clouds
9:35 AM 51.8 °F 51.8 °F 100% 30.39 in 10.0 mi South 6.9 mph - N/A   Clear
9:55 AM 51.8 °F 48.2 °F 88% 30.39 in 10.0 mi SSW 5.8 mph - N/A   Scattered Clouds
10:15 AM 53.6 °F 50.0 °F 88% 30.39 in 10.0 mi South 5.8 mph - N/A   Mostly Cloudy
10:35 AM 55.4 °F 48.2 °F 77% 30.39 in 10.0 mi South 8.1 mph - N/A   Overcast
10:55 AM 55.4 °F 48.2 °F 77% 30.38 in 10.0 mi South 5.8 mph - N/A   Overcast
11:15 AM 57.2 °F 48.2 °F 72% 30.37 in 10.0 mi South 9.2 mph - N/A   Mostly Cloudy
11:35 AM 60.8 °F 51.8 °F 72% 30.36 in 10.0 mi South 6.9 mph - N/A   Scattered Clouds
11:55 AM 62.6 °F 51.8 °F 68% 30.35 in 10.0 mi South 6.9 mph - N/A   Clear
12:15 PM 64.4 °F 53.6 °F 68% 30.34 in 10.0 mi South 4.6 mph - N/A   Scattered Clouds
12:35 PM 64.4 °F 53.6 °F 68% 30.33 in 10.0 mi South 10.4 mph - N/A   Scattered Clouds
12:55 PM 66.2 °F 51.8 °F 60% 30.32 in 10.0 mi South 10.4 mph - N/A   Scattered Clouds
1:15 PM 66.2 °F 51.8 °F 60% 30.31 in 10.0 mi South 10.4 mph - N/A   Scattered Clouds
1:35 PM 64.4 °F 51.8 °F 64% 30.30 in 10.0 mi SSE 6.9 mph - N/A   Scattered Clouds
1:55 PM 64.4 °F 51.8 °F 64% 30.30 in 10.0 mi South 10.4 mph 17.3 mph N/A   Mostly Cloudy
2:15 PM 62.6 °F 51.8 °F 68% 30.30 in 10.0 mi South 10.4 mph 17.3 mph N/A   Mostly Cloudy
2:35 PM 64.4 °F 51.8 °F 64% 30.29 in 10.0 mi South 6.9 mph - N/A   Mostly Cloudy
2:55 PM 62.6 °F 51.8 °F 68% 30.28 in 10.0 mi South 9.2 mph 16.1 mph N/A   Scattered Clouds
3:15 PM 62.6 °F 51.8 °F 68% 30.27 in 10.0 mi South 8.1 mph - N/A   Scattered Clouds
3:35 PM 62.6 °F 51.8 °F 68% 30.27 in 10.0 mi South 8.1 mph - N/A   Scattered Clouds
3:55 PM 62.6 °F 51.8 °F 68% 30.26 in 10.0 mi South 10.4 mph - N/A   Clear
4:15 PM 62.6 °F 51.8 °F 68% 30.26 in 10.0 mi SSE 6.9 mph - N/A   Clear
4:35 PM 62.6 °F 51.8 °F 68% 30.25 in 10.0 mi South 5.8 mph - N/A   Clear
4:55 PM 60.8 °F 51.8 °F 72% 30.25 in 10.0 mi South 5.8 mph - N/A   Scattered Clouds
5:15 PM 60.8 °F 51.8 °F 72% 30.24 in 10.0 mi SSE 6.9 mph - N/A   Mostly Cloudy
5:35 PM 59.0 °F 51.8 °F 77% 30.24 in 10.0 mi South 6.9 mph - N/A   Scattered Clouds
5:55 PM 57.2 °F 51.8 °F 82% 30.24 in 10.0 mi South 9.2 mph - N/A   Clear
6:15 PM 57.2 °F 51.8 °F 82% 30.24 in 10.0 mi South 9.2 mph 16.1 mph N/A   Clear
6:35 PM 57.2 °F 51.8 °F 82% 30.24 in 10.0 mi South 5.8 mph - N/A   Clear
6:55 PM 57.2 °F 51.8 °F 82% 30.24 in 10.0 mi South 5.8 mph - N/A   Scattered Clouds
7:15 PM 57.2 °F 51.8 °F 82% 30.24 in 10.0 mi South 5.8 mph - N/A   Scattered Clouds
7:35 PM 57.2 °F 51.8 °F 82% 30.23 in 10.0 mi South 5.8 mph - N/A   Mostly Cloudy
7:55 PM 55.4 °F 51.8 °F 88% 30.23 in 10.0 mi SSW 5.8 mph - N/A   Mostly Cloudy
8:15 PM 55.4 °F 51.8 °F 88% 30.22 in 10.0 mi SSW 6.9 mph - N/A   Scattered Clouds
8:35 PM 55.4 °F 51.8 °F 88% 30.22 in 10.0 mi SSW 8.1 mph - N/A   Clear
8:55 PM 55.4 °F 51.8 °F 88% 30.22 in 10.0 mi SSW 9.2 mph - N/A   Clear
9:15 PM 55.4 °F 51.8 °F 88% 30.21 in 10.0 mi South 8.1 mph - N/A   Clear
9:35 PM 55.4 °F 51.8 °F 88% 30.20 in 10.0 mi South 5.8 mph - N/A   Clear
9:55 PM 55.4 °F 51.8 °F 88% 30.19 in 10.0 mi South 8.1 mph - N/A   Clear
10:15 PM 55.4 °F 51.8 °F 88% 30.19 in 10.0 mi SSW 3.5 mph - N/A   Clear
10:35 PM 53.6 °F 51.8 °F 94% 30.18 in 10.0 mi South 6.9 mph - N/A   Clear
10:55 PM 55.4 °F 51.8 °F 88% 30.17 in 10.0 mi South 9.2 mph - N/A   Clear
11:15 PM 55.4 °F 51.8 °F 88% 30.17 in 10.0 mi South 10.4 mph - N/A   Clear
11:35 PM 55.4 °F 51.8 °F 88% 30.16 in 10.0 mi South 9.2 mph - N/A   Clear
11:55 PM 55.4 °F 51.8 °F 88% 30.16 in 10.0 mi South 10.4 mph - N/A   Clear